Вернуться в каталог

STARLINK-36506

АктивенСвязьVLEO
NORAD 67414·PAYLOAD·🇺🇸 United States

Запущен Jan 12, 2026 с Cape Canaveral Space Force Station

Loading…

Ближайшие Пролёты (ближайшие 24 часа)

TLE

СвежийSource: CelesTrak SupGP

Эпоха: Sep 15, 2026, 04:09 UTC

1 67414C 26005L   26258.17340278 -.00033542  00000+0 -12151-2 0  2588
2 67414  43.0004 247.6886 0000970 269.6982 237.2513 15.27589356    19

Отслеживайте STARLINK-36506 в реальном времени с AllMySat

Download on the App Store